COOK1: Arkansas River Nr Coolidge, KS

                                SHEF ID:       COOK1     ARKANSAS R NR COOLIDGE, KS
STATION TYPE:
Regulating: Stage = 8.00, Flow = 2050

PRECIP STAGE STAGE(2) RIV-FLOW WTR-TEMP CONDUCT BAT-LOAD
in ft ft cfs F umho/cm volt
Ccp-Rev Ccp-Rev Ccp-Rev Ccp-Rev Ccp-Rev Ccp-Rev Ccp-Rev
(America/Chicago)
06/22 00:00 0.00 2.58 2.67 61 73.20 5515 12.95
06/22 01:00 0.00 2.59 2.67 62 72.43 5548 12.95
06/22 02:00 0.00 2.60 2.68 63 71.58 5578 12.89
06/22 03:00 0.00 2.59 2.69 62 70.97 5591 12.89
06/22 04:00 0.00 2.59 2.68 62 70.32 5589 12.89
06/22 05:00 0.00 2.60 2.69 63 69.57 5576 12.89
06/22 06:00 0.00 2.59 2.69 62 68.86 5593 12.89
06/22 07:00 0.00 2.59 2.69 62 68.34 5593 12.83
06/22 08:00 0.00 2.60 2.69 63 68.20 5585 12.89
06/22 09:00 0.00 2.59 2.70 62 68.58 5585 13.00
06/22 10:00 0.00 2.60 2.69 63 69.67 5598 13.36
06/22 11:00 0.00 2.60 2.69 63 71.42 5629 13.53
06/22 12:00 0.00 2.60 2.69 63 73.47 5645 13.65
06/22 13:00 0.00 2.61 2.71 63 76.01 5650 13.65
06/22 14:00 0.00 2.60 2.71 63 79.14 5657 13.65
06/22 15:00 0.00 2.60 2.71 63 80.28 5648 13.83
06/22 16:00 0.00 2.62 2.72 64 81.37 5625 13.83
06/22 17:00 0.00 2.63 2.72 65 81.48 5614 13.24
06/22 18:00 0.00 2.65 2.73 67 81.10 5627 13.18
06/22 19:00 0.00 2.65 2.75 67 81.50 5641 13.18
06/22 20:00 0.00 2.65 2.73 67 80.74 5623 13.18
06/22 21:00 0.00 2.65 2.72 67 79.79 5454 13.07
06/22 22:00 0.00 2.63 2.71 65 78.53 5409 13.00
06/22 23:00 ---- ---- ---- ---- ---- ---- ----
Data processed at Sun 23Jun2024 04:30 GMT

Parsing this webpage?

Checkout our new Data API! CWMSDataAPI (CDA)

Timeseries IDs (TSIDs)

TSIDs used from left to right in the data table
COOL.Precip-Inc.Total.1Hour.1Hour.Ccp-Rev
COOL.Stage.Inst.1Hour.0.Ccp-Rev
COOL.Stage-Alt.Inst.1Hour.0.Ccp-Rev
COOL.Flow.Inst.1Hour.0.Ccp-Rev
COOL.Temp-Water.Inst.1Hour.0.Ccp-Rev
COOL.Cond.Inst.1Hour.0.Ccp-Rev
COOL.Volt-Battery Load.Inst.1Hour.0.Ccp-Rev

                            

All information presented herein is the property of the government of the United States of America and may be revised or deleted at any time without prior notice. Dissemination of this information without the expressed written consent of the Public Affairs Office, Tulsa District U.S. Army Corps of Engineers is strictly prohibited. These data are gathered electronically and, as presented, have NOT undergone any form of quality control. These data are NOT guaranteed to be valid or correct.